Regional Weather Roundup
Issued by NWS

Home | Current Version | Previous Version | Text Only | Print | Product List | Glossary Off
Versions: 1 2 3 4 5 6 7 8 9 10 11 12 13 14 15 16 17 18 19 20 21 22 23 24 25 26 27 28 29 30 31 32 33 34 35 36 37 38 39 40 41 42 43 44 45 46 47 48 49 50

000
ASUS43 KLOT 271503
RWRIL

ILLINOIS REGIONAL WEATHER ROUNDUP
NATIONAL WEATHER SERVICE CHICAGO/ROMEOVILLE IL
900 AM CST MON FEB 27 2017

NOTE: "FAIR" INDICATES FEW OR NO CLOUDS BELOW 12,000 FEET WITH NO
SIGNIFICANT WEATHER AND/OR OBSTRUCTIONS TO VISIBILITY.

* THESE STATIONS ARE NOT UNDER NWS QUALITY CONTROL. THEY ALSO MAY NOT
  REPORT WEATHER SUCH AS PRECIPITATION OR FOG.

ILZ001-002-007-009-015-016-024-271600-
NORTHWEST ILLINOIS

CITY           SKY/WX    TMP DP  RH WIND       PRES   REMARKS
MOLINE         SUNNY     39  34  82 S5        30.11R
STERLING*      SUNNY     39  34  82 CALM      30.13S
$$

ILZ003-004-008-010-011-017-018-271600-
NORTH CENTRAL ILLINOIS

CITY           SKY/WX    TMP DP  RH WIND       PRES   REMARKS
ROCKFORD       CLOUDY    35  30  82 S7        30.14S WCI  29
FREEPORT*      CLOUDY    35  32  89 S9        30.13S WCI  28
ROCHELLE*      CLOUDY    35  33  90 S7        30.14S WCI  30
DE KALB*       CLOUDY    35  32  89 S6        30.15S WCI  29
PERU*          SUNNY     37  32  81 SW6       30.15S WCI  33
$$

ILZ005-006-012>014-019>023-271600-
NORTHEAST ILLINOIS

CITY           SKY/WX    TMP DP  RH WIND       PRES   REMARKS
CHICAGO-OHARE  MOSUNNY   40  30  67 SW3       30.15S
CHICAGO-MIDWAY SUNNY     40  30  67 S6        30.17R
AURORA         SUNNY     38  32  79 S6        30.16R WCI  33
LANSING*       SUNNY     38  33  83 S7        30.19R WCI  32
JOLIET*        SUNNY     40  34  80 S5        30.17S
WAUKEGAN       PTSUNNY   38  30  73 SE8       30.15R WCI  32
DUPAGE AIRPORT SUNNY     37  30  75 S6        30.15R WCI  32
KANKAKEE*      SUNNY     41  33  73 CALM      30.18S
WHEELING       SUNNY     37  28  70 S6        30.17R WCI  32
MORRIS*        SUNNY     38  32  79 CALM      30.16S
ROMEOVILLE*    SUNNY     38  34  87 S3        30.16S
NORTHERLY ISL    N/A     39  29  67 SW5         N/A
$$

LMZ740>746-271600-
SOUTHERN LAKE MICHIGAN

STATION/POSITION SKY/WX   TEMP    WIND        PRES    VSBY  WAVE
                          AIR SEA DIR/SP/G                  HT/PER
                          (F)     (DEG/KT/KT) (MB)    (MI)  (FT/S)
HARRISON CRIB              38     160/  5/  7   N/A
BURNHAM HARBOR             40      CALM  /  6   N/A
CALUMET HARBOR             37     180/  3/  5 1021.1R
BURNS HARBOR               38     180/  5/  8 1022.4R
MICHIGAN CITY              37     140/  6/  7   N/A
$$

ILZ025>027-034>036-040-047-049-050-058-095>099-271600-
WEST-CENTRAL ILLINOIS

CITY           SKY/WX    TMP DP  RH WIND       PRES   REMARKS
QUINCY         SUNNY     42  36  79 SE7       30.10R
GALESBURG*     SUNNY     37  34  87 S7        30.12  WCI  32
MACOMB*        SUNNY     37  35  95 S5        30.14R WCI  33
JACKSONVILLE*  SUNNY     44  36  71 SE10      30.13S
PITTSFIELD*    SUNNY     42  36  80 SE6       30.12S
$$

ILZ028>032-037-038-041>044-048-051>054-059>061-271600-
CENTRAL ILLINOIS

CITY           SKY/WX    TMP DP  RH WIND       PRES   REMARKS
PONTIAC        SUNNY     41  36  83 S8        30.17R
BLOOMINGTON    SUNNY     41  35  79 SE10      30.15S
DECATUR        SUNNY     45  36  70 SE7       30.15S
PEORIA         SUNNY     40  34  79 S7        30.14S
LACON*         SUNNY     39  34  81 SE5       30.15R
LINCOLN*       SUNNY     46  37  69 SE10      30.14F
SPRINGFIELD    SUNNY     47  35  63 SE9       30.15S
TAYLORVILLE    SUNNY     46  35  67 SE10      30.14S
$$

ILZ033-039-045-046-055>057-062-063-271600-
EAST-CENTRAL ILLINOIS

CITY           SKY/WX    TMP DP  RH WIND       PRES   REMARKS
CHAMPAIGN      SUNNY     47  33  58 SE13      30.16F
RANTOUL*       SUNNY     46  36  67 SE10      30.17S
MATTOON        SUNNY     47  36  65 S12       30.15F
$$

ILZ079-100>102-271600-
SOUTHWEST ILLINOIS

CITY           SKY/WX    TMP DP  RH WIND       PRES   REMARKS
ALTON          SUNNY     46  36  66 SE6       30.14R
BELLEVILLE     SUNNY     49  40  71 E7        30.13R
CAHOKIA*       SUNNY     48  37  65 SE9       30.14R
SPARTA*        SUNNY     46  39  76 SE7       30.14S
$$

ILZ064>066-069>071-074>076-080>082-084>086-088>090-092>094-271600-
SOUTH-CENTRAL ILLINOIS

CITY           SKY/WX    TMP DP  RH WIND       PRES   REMARKS
CARBONDALE     SUNNY     49  43  80 SE7       30.15S
CAIRO*         SUNNY     51  45  80 SE7       30.16R
EFFINGHAM*     MOSUNNY   48  39  71 E9        30.18S
MARION         MOSUNNY   52  45  76 SE12      30.16R
MT. VERNON     CLOUDY    48  39  71 E6        30.16S
CENTRALIA*     SUNNY     49  40  70 SE10      30.14S
SALEM*         PTSUNNY   48  37  65 SE8       30.15S
METROPOLIS*    CLOUDY    50  45  82 CALM      30.17R
$$

ILZ067-068-072-073-078-083-087-091-271600-
SOUTHEAST ILLINOIS

CITY           SKY/WX    TMP DP  RH WIND       PRES   REMARKS
LAWRENCEVILLE  CLOUDY    46  39  76 SE8       30.20S
FLORA*         CLOUDY    46  38  75 SE7       30.17F
FAIRFIELD*     CLOUDY    46  41  81 E5        30.16S
HARRISBURG*    PTSUNNY   46  43  86 SE9       30.17S
ROBINSON*      CLOUDY    45  37  73 SE8       30.19F
CARMI*         CLOUDY    46  42  88 SE9       30.17S
$$

ABBREVIATIONS USED IN REMARKS
   TC - TEMPERATURE IN CELSIUS
  WCI - WIND CHILL INDEX
   HX - HEAT INDEX
  VSB - VISIBILITY
$$





USA.gov is the U.S. government's official web portal to all federal, state and local government web resources and services.